OBJECT A, 60012

Orbit data source: Space-Track

You're viewing an Uncataloged Satellite

Recently launched and/or uncataloged satellites may have evolving metadata. Metadata may include but not limited to: Owner, Maufacturer, Bus, Motor, and Mission.

OBJECT A, 60012 is a Chinese satellite in SSO that was launched on Thu, 06 Jun 2024 UTC via a GUSHENXING 1 launch vehicle from the Jiuquan Satellite Launch Center, China (JSC). Unknown objects in Earth's orbit typically refer to objects detected orbiting the Earth but have not yet been identified or cataloged. These objects could be anything from previously untracked satellites, spent rocket stages, debris from satellite collisions, or even natural meteoroids temporarily captured by Earth's gravity.

Loading next visibility...
Identifier
60012, 2024-110A
Orbit
SSO
Last TLE update
8 hours ago
Origin
Manufacturer
Changguang WJ
Mission
Operational spacecraft
Bus & Motor
JL1GF4, Unknown motor
Mass
~112 kg wet, ~112 kg dry
Launch date (UTC)
2024-06-06 (11 months ago)
Launch vehicle
GUSHENXING 1
Launch site
Jiuquan Satellite Launch Center, China (JSC)
Object type
Unknown
Shape & HBR
Unknown
Radar Cross Section
Medium (>0.1 m² and <1 m²)

Expand to show TLE details & history

TLE from 8 hours ago
0 OBJECT A
1 60012U 24110A   25128.91898742  .00009986  00000-0  58788-3 0  9994
2 60012  97.5816 218.6976 0014477  40.0198 320.2096 15.11739250 50811
Epoch: 2025-05-08T22:03Z
Definitive object data (Epoch: 2025-05-08T22:03:20.513Z)
Latitude
-0.00001°
Longitude
20.87955°
Altitude
526.288 km
Speed
7.604 km/s
True Right ascension
14h 34m 47s
True Declination
0° 00' 00"
Sunlit
Object was in full shadow at TLE epoch
Visualization TLE readout
Latitude
-4.91553°
Longitude
21.85927°
Altitude
527.478 km
Speed
7.603 km/s
Apparent Right ascension
15h 51m 37s
Apparent Declination
-65° 23' 04"
Sunlit
Object is in full shadow
Visualization observer readout
Local Sidereal Time
14:07:22
Azimuth
168.952° S
Elevation
-17.24°
Doppler factor
1
Orbital elements
Apogee altitude
537.878 km
Perigee altitude
517.882 km
Semi-major axis
6,906.017 km
Eccentricity
0.0014477
Inclination
97.5816°
RAAN
218.6976°
Arg. of periapsis
40.0198°
True anomaly
320.10328°
Mean anomaly
320.2096°
Eccentric anomaly
320.15646°
Mean motion
3.78183 °/min
BSTAR
0.00058788
Orbital period
95.19 mins
Loading maneuver chart data...
Loading SW <> Apogee altitude chart data...
Loading historical data...
Loading historical data...
Loading historical data...
Loading historical data...
Loading historical data...
Loading historical data...
Loading historical data...
Other satellites on launch #110 in the year 2024 (2024-06-06 UTC)

OBJECT A Visibility forecast

Observer location: undefined°, undefined°

Span
Click to sort rows by Start time (UTC) header in descending order
Start Az.
Max El. time (UTC)
Max El. Az.
Max El.
End time (UTC)
End Az.
6 mins2025-05-09 06:07:36.713Z176.694° S2025-05-09 06:10:36.713Z280.386° WNW42.798°2025-05-09 06:13:36.713Z341.619° N
5 mins2025-05-09 19:16:36.713Z348.155° N2025-05-09 19:18:36.713Z302.1° NW32.535°2025-05-09 19:21:36.713Z222.843° SW
|